Regional Weather Roundup
Issued by NWS

Home | Current Version | Previous Version | Text Only | Print | Product List | Glossary On
Versions: 1 2 3 4 5 6 7 8 9 10 11 12 13 14 15 16 17 18 19 20 21 22 23 24 25 26 27 28 29 30 31 32 33 34 35 36 37 38 39 40 41 42 43 44 45 46 47 48 49 50
000
ASUS44 KFWD 301815
RWRTX
NORTH TEXAS HOURLY WEATHER ROUNDUP
NATIONAL WEATHER SERVICE FORT WORTH TX
100 PM CDT THU OCT 30 2014

NOTE: "FAIR" INDICATES FEW OR NO CLOUDS BELOW 12,000 FEET WITH NO
SIGNIFICANT WEATHER AND/OR OBSTRUCTIONS TO VISIBILITY.

TXZ118-119-301900-
DALLAS/FORT WORTH METROPLEX

CITY           SKY/WX    TMP DP  RH WIND       PRES   REMARKS
DFW AIRPORT    MOSUNNY   74  47  38 S8        30.13F
6HR MIN TEMP:  52; 6HR MAX TEMP:  74;

DALLAS LOVE    MOSUNNY   72  47  40 S6        30.14F
6HR MIN TEMP:  56; 6HR MAX TEMP:  73;

FTW MEACHAM    SUNNY     75  52  44 S12       30.12F
6HR MIN TEMP:  54; 6HR MAX TEMP:  75;

DAL-EXECUTIVE  SUNNY     75  47  36 S8        30.13F
6HR MIN TEMP:  52; 6HR MAX TEMP:  75;

FTW-ALLIANCE   MOSUNNY   75  50  41 S6G17     30.12F
6HR MIN TEMP:  49; 6HR MAX TEMP:  75;

FTW-NAS-JRB    MOSUNNY   78  51  38 S9        30.17F
6HR MIN TEMP:  58; 6HR MAX TEMP:  78;

FTW-SPINKS     SUNNY     75  52  43 S8        30.15F
ARLINGTON      SUNNY     74  47  38 S8        30.13F
6HR MIN TEMP:  48; 6HR MAX TEMP:  75;

GRAND PRAIRIE  SUNNY     72  48  43 MISG      30.15F
ADDISON        SUNNY     72  46  40 S9        30.15F
MESQUITE       SUNNY     72  46  40 SW6       30.15F
LANCASTER      SUNNY     72  45  37 CALM      30.15F
6HR MIN TEMP:  46; 6HR MAX TEMP:  73;

$$

TXZ091>094-102>105-117-120-121-131>134-301900-
NORTH CENTRAL TEXAS

CITY           SKY/WX    TMP DP  RH WIND       PRES   REMARKS
SHRMAN/DENISON PTSUNNY   71  50  47 S10       30.14F
6HR MIN TEMP:  50; 6HR MAX TEMP:  73;

GAINESVILLE    PTSUNNY   71  49  45 S9        30.15F
6HR MIN TEMP:  48; 6HR MAX TEMP:  72;

BOWIE          CLOUDY    75  53  46 SE3       30.13F
6HR MIN TEMP:  48; 6HR MAX TEMP:  75;

BRIDGEPORT     MOSUNNY   76  56  50 S7        30.14F
6HR MIN TEMP:  45; 6HR MAX TEMP:  76;

DECATUR        MOSUNNY   74  50  42 S8        30.13F
6HR MIN TEMP:  53; 6HR MAX TEMP:  74;

DENTON         SUNNY     74  49  41 SW10      30.13F
6HR MIN TEMP:  45; 6HR MAX TEMP:  74;

MCKINNEY       SUNNY     72  47  40 S10       30.14F
6HR MIN TEMP:  44; 6HR MAX TEMP:  73;

GREENVILLE     SUNNY     73  43  33 SW7       30.15F
ROCKWALL       SUNNY     72  48  42 SW8G18    30.14F
6HR MIN TEMP:  53; 6HR MAX TEMP:  72;

TERRELL        SUNNY     73  48  41 S8        30.15F
6HR MIN TEMP:  48; 6HR MAX TEMP:  73;

WAXAHACHIE     SUNNY     73  51  45 SE7       30.15F
6HR MIN TEMP:  49; 6HR MAX TEMP:  73;

CLEBURNE       PTSUNNY   72  54  53 S9        30.15F
GRANBURY       SUNNY     74  56  53 S5        30.14F
6HR MIN TEMP:  50; 6HR MAX TEMP:  74;

$$

TXZ083>090-098>101-113>116-127>130-139>142-154-155-301900-
WESTERN NORTH TEXAS

CITY           SKY/WX    TMP DP  RH WIND       PRES   REMARKS
WICHITA FALLS  PTSUNNY   76  57  51 SW7       30.12F
6HR MIN TEMP:  50; 6HR MAX TEMP:  77;

WF-KICKAPOO    MOSUNNY   76  56  48 SW8G16    30.14F
6HR MIN TEMP:  51; 6HR MAX TEMP:  76;

VERNON         SUNNY     75  54  46 N6        30.15R
ABILENE        SUNNY     78  60  53 S9        30.13F
6HR MIN TEMP:  57; 6HR MAX TEMP:  78;

ABILENE-DYESS  SUNNY     78  61  55 VRB5      30.12F
6HR MIN TEMP:  57; 6HR MAX TEMP:  78;

BRECKENRIDGE   SUNNY     79  59  51 CALM      30.12F HAZE
6HR MIN TEMP:  59; 6HR MAX TEMP:  79;

GRAHAM         SUNNY     77  60  55 S6        30.11F
6HR MIN TEMP:  54; 6HR MAX TEMP:  77;

MINERAL WELLS  PTSUNNY   74  55  51 S10       30.12F
6HR MIN TEMP:  51; 6HR MAX TEMP:  74; 6HR PCP: TRACE;

STEPHENVILLE   MOSUNNY   74  58  57 S3        30.17F
6HR MIN TEMP:  54; 6HR MAX TEMP:  74;

COMANCHE       SUNNY     77  64  62 SW7       30.14F
6HR MIN TEMP:  54; 6HR MAX TEMP:  77;

BROWNWOOD      SUNNY     73  61  64 S6        30.14F
COLEMAN        SUNNY     75  62  64 CALM      30.14F
6HR MIN TEMP:  55; 6HR MAX TEMP:  75;

BRADY          SUNNY     79  61  53 SE8       30.13F
$$

TXZ143>147-156>162-174-175-301900-
CENTRAL TEXAS

CITY           SKY/WX    TMP DP  RH WIND       PRES   REMARKS
WACO           PTSUNNY   70  48  45 S8        30.15F
6HR MIN TEMP:  51; 6HR MAX TEMP:  70;

WACO-MCGREGOR  PTSUNNY   72  46  40 S8        30.16F
6HR MIN TEMP:  52; 6HR MAX TEMP:  72;

HILLSBORO      SUNNY     73  47  39 S7        30.14F
6HR MIN TEMP:  54; 6HR MAX TEMP:  74;

CORSICANA      SUNNY     73  46  38 VRB3      30.16F
6HR MIN TEMP:  51; 6HR MAX TEMP:  73;

MEXIA          SUNNY     71  49  45 S7        30.14F
6HR MIN TEMP:  52; 6HR MAX TEMP:  71;

HEARNE         PTSUNNY   73  48  42 S3        30.15F
6HR MIN TEMP:  51; 6HR MAX TEMP:  73;

CAMERON        CLOUDY    73  51  45 SE5       30.14F
6HR MIN TEMP:  54; 6HR MAX TEMP:  73;

TEMPLE         CLOUDY    70  48  46 S6        30.13F
6HR MIN TEMP:  55; 6HR MAX TEMP:  70;

KILLEEN        SUNNY     73  54  50 VRB6      30.14F
6HR MIN TEMP:  59; 6HR MAX TEMP:  74;

KILLEEN-SKYLRK PTSUNNY   73  52  46 SE6       30.13S
6HR MIN TEMP:  61; 6HR MAX TEMP:  73;

FORT HOOD      SUNNY     76  54  46 VRB6      30.13F
6HR MIN TEMP:  61; 6HR MAX TEMP:  76;

GATESVILLE     SUNNY     73  52  46 CALM      30.16F
HAMILTON       MOSUNNY   75  59  57 SW7       30.15F
6HR MIN TEMP:  58; 6HR MAX TEMP:  76;

LAMPASAS       SUNNY     76  64  66 SE5       30.13F
6HR MIN TEMP:  58; 6HR MAX TEMP:  76;

$$

TXZ095>097-106>112-122>126-135>138-148>153-164>167-301900-
EAST TEXAS

CITY           SKY/WX    TMP DP  RH WIND       PRES   REMARKS
PARIS          SUNNY     72  43  35 SW9       30.15F
6HR MIN TEMP:  45; 6HR MAX TEMP:  72;

SULPHUR SPRNGS SUNNY     72  35  26 SW8       30.16F
6HR MIN TEMP:  47; 6HR MAX TEMP:  72;

MOUNT PLEASANT SUNNY     71  40  32 S6        30.16F
6HR MIN TEMP:  40; 6HR MAX TEMP:  71;

MINEOLA          N/A     72  39  30 S5        30.16F
TYLER          SUNNY     71  45  39 S8        30.15F
6HR MIN TEMP:  49; 6HR MAX TEMP:  71;

LONGVIEW       SUNNY     71  41  33 S6        30.15F
6HR MIN TEMP:  45; 6HR MAX TEMP:  71;

MARSHALL       SUNNY     73  44  34 S6        30.17F
6HR MIN TEMP:  43; 6HR MAX TEMP:  73;

ATHENS         SUNNY     70  43  37 CALM      30.14F
PALESTINE      SUNNY     71  47  43 CALM      30.17F
JACKSONVILLE   SUNNY     70  42  36 SW3       30.18F
HENDERSON      SUNNY     71  43  36 SE7       30.16F
6HR MIN TEMP:  43; 6HR MAX TEMP:  71;

NACOGDOCHES    SUNNY     70  45  40 SE6       30.16F
6HR MIN TEMP:  41; 6HR MAX TEMP:  70;

LUFKIN         SUNNY     73  46  38 VRB5      30.15F
6HR MIN TEMP:  48; 6HR MAX TEMP:  73;

$$

SUPPLEMENTAL OBSERVATIONS (CENTRAL)

CITY           SKY/WX    TMP DP  RH WIND       PRES   REMARKS
LAKE TEXOMA      N/A     72  48  43 SW10        N/A
PAT MAYSE LAKE   N/A     70  41  35 S12         N/A
GREENVILLE       N/A     73  41  31 S9          N/A
CEDAR HILL       N/A     75  48  38 S6          N/A
ATHENS           N/A     73  45  35 SE3         N/A
LAKE LIMESTONE   N/A     75  46  35 SE6         N/A
MCGREGOR         N/A     75  48  38 S7          N/A
$$

SUPPLEMENTAL OBSERVATIONS (WEST)

CITY           SKY/WX    TMP DP  RH WIND       PRES   REMARKS
MILLERS CREEK    N/A     75  61  60 SW6         N/A
HAMBY            N/A     79  61  53 SW8G16      N/A



USA.gov is the U.S. government's official web portal to all federal, state and local government web resources and services.